Location: Sun City Center
(27.6996°N, 82.3528°W)
Time: 04:52:57
(UTC-05:00)

Cosmos 2084 Rocket - Visible Passes

Search period start: 20 January 2017 00:00
Search period end: 30 January 2017 00:00
Orbit: 497 x 687 km, 62.8° (Epoch: 19 January)

Date Brightness Start Highest point End Pass type
(mag) Time Alt. Az. Time Alt. Az. Time Alt. Az.
26 Jan 5.2 19:27:15 10° N 19:28:14 15° N 19:28:14 15° N visible
27 Jan 3.7 19:35:22 10° NNW 19:38:19 42° NNE 19:38:19 42° NNE visible
28 Jan 3.4 19:43:52 10° NNW 19:47:45 72° WSW 19:49:15 36° SSE visible
29 Jan 5.0 19:52:45 10° NW 19:56:17 32° WSW 19:59:58 10° S visible
